Location: STAR School
(35.3054°N, 111.2976°W)
Time: 08:52:31
(UTC-07:00)

Altair - All Passes

Search period start: 24 May 2019 00:00
Search period end: 03 June 2019 00:00
Orbit: 1501 x 1683 km, 47.2° (Epoch: 24 May)

Date Brightness Start Highest point End Pass type
(mag) Time Alt. Az. Time Alt. Az. Time Alt. Az.
24 May - 01:42:04 10° S 01:50:24 31° SE 01:58:52 10° ENE visible
24 May - 03:44:23 10° SW 03:54:30 86° NW 04:04:45 10° NE visible
24 May - 05:50:48 10° W 06:00:28 46° NNW 06:10:04 10° ENE daylight
24 May - 07:57:43 10° WNW 08:07:23 46° NNE 08:16:47 10° E daylight
24 May - 10:03:08 10° NW 10:13:15 87° NE 10:22:58 10° SE daylight
24 May - 12:09:08 10° WNW 12:17:12 30° SW 12:25:03 10° S daylight
25 May - 01:17:20 10° S 01:25:19 28° SE 01:33:25 10° ENE visible
25 May - 03:19:12 10° SW 03:29:17 89° SE 03:39:32 10° NE visible
25 May - 05:25:25 10° W 05:35:07 47° NNW 05:44:47 10° ENE daylight
25 May - 07:32:24 10° WNW 07:42:02 45° N 07:51:27 10° E daylight
25 May - 09:37:53 10° NW 09:48:03 83° NE 09:57:48 10° ESE daylight
25 May - 11:43:42 10° WNW 11:52:08 33° SW 12:00:18 10° S daylight
26 May - 00:52:40 10° S 01:00:14 25° SE 01:07:55 10° ENE visible
26 May - 02:54:02 10° SW 03:04:05 84° SE 03:14:18 10° NE visible
26 May - 05:00:02 10° W 05:09:47 49° NNW 05:19:31 10° ENE daylight
26 May - 07:07:05 10° WNW 07:16:41 44° N 07:26:05 10° E daylight
26 May - 09:12:39 10° NW 09:22:48 78° NNE 09:32:36 10° ESE daylight
26 May - 11:18:18 10° WNW 11:27:03 36° SW 11:35:31 10° SSE daylight
27 May - 00:28:04 10° S 00:35:10 23° SE 00:42:21 10° ENE visible
27 May - 02:28:53 10° SW 02:38:53 78° SE 02:49:04 10° ENE visible
27 May - 04:34:40 10° W 04:44:27 50° NNW 04:54:15 10° ENE visible
27 May - 06:41:45 10° WNW 06:51:19 43° N 07:00:44 10° ENE daylight
27 May - 08:47:24 10° NW 08:57:34 74° NNE 09:07:23 10° ESE daylight
27 May - 10:52:56 10° WNW 11:01:57 40° SW 11:10:41 10° SSE daylight
28 May - 00:03:34 10° SSE 00:10:06 20° ESE 00:16:43 10° E visible
28 May - 02:03:46 10° SW 02:13:41 73° SE 02:23:49 10° ENE visible
28 May - 04:09:18 10° W 04:19:07 52° NNW 04:28:59 10° NE visible
28 May - 06:16:25 10° WNW 06:25:57 43° N 06:35:22 10° ENE daylight
28 May - 08:22:10 10° NW 08:32:19 70° NNE 08:42:08 10° ESE daylight
28 May - 10:27:35 10° WNW 10:36:51 44° SW 10:45:48 10° SSE daylight
28 May - 23:39:11 10° SSE 23:45:02 18° ESE 23:50:58 10° E visible
29 May - 01:38:42 10° SW 01:48:31 68° SE 01:58:34 10° ENE visible
29 May - 03:43:57 10° W 03:53:48 54° NNW 04:03:44 10° NE visible
29 May - 05:51:04 10° WNW 06:00:35 42° N 06:10:01 10° ENE daylight
29 May - 07:56:56 10° NW 08:07:03 66° NNE 08:16:53 10° ESE daylight
29 May - 10:02:16 10° WNW 10:11:44 48° SW 10:20:53 10° SSE daylight
29 May - 23:14:58 10° SSE 23:19:59 15° ESE 23:25:04 10° E visible
30 May - 01:13:38 10° SW 01:23:20 63° SE 01:33:18 10° ENE visible
30 May - 03:18:37 10° W 03:28:29 57° NNW 03:38:29 10° NE visible
30 May - 05:25:43 10° WNW 05:35:13 42° N 05:44:39 10° ENE daylight
30 May - 07:31:42 10° NW 07:41:47 63° NNE 07:51:36 10° ESE daylight
30 May - 09:36:57 10° WNW 09:46:36 53° SW 09:55:56 10° SSE daylight
30 May - 11:47:58 10° WSW 11:49:42 11° WSW 11:51:27 10° SW daylight
30 May - 22:51:01 10° SE 22:54:56 13° ESE 22:58:54 10° E visible
31 May - 00:48:37 10° SSW 00:58:11 58° SE 01:08:02 10° ENE visible
31 May - 02:53:18 10° WSW 03:03:11 60° NNW 03:13:14 10° NE visible
31 May - 05:00:21 10° WNW 05:09:50 42° N 05:19:18 10° ENE daylight
31 May - 07:06:27 10° NW 07:16:30 60° NNE 07:26:19 10° ESE daylight
31 May - 09:11:41 10° WNW 09:21:28 58° SW 09:30:57 10° SSE daylight
31 May - 11:20:57 10° W 11:24:41 13° WSW 11:28:23 10° SW daylight
31 May - 22:27:43 10° SE 22:29:54 11° ESE 22:32:06 10° ESE visible
01 Jun - 00:23:37 10° SSW 00:33:02 53° SE 00:42:45 10° ENE visible
01 Jun - 02:27:59 10° WSW 02:37:54 63° NNW 02:48:00 10° NE visible
01 Jun - 04:35:00 10° WNW 04:44:28 42° N 04:53:57 10° ENE visible
01 Jun - 06:41:12 10° NW 06:51:12 57° NNE 07:01:00 10° E daylight
01 Jun - 08:46:24 10° WNW 08:56:19 63° SW 09:05:56 10° SE daylight
01 Jun - 10:54:44 10° W 10:59:38 15° WSW 11:04:29 10° SSW daylight
01 Jun - 23:58:38 10° SSW 00:07:54 49° SE 00:17:27 10° ENE visible
02 Jun - 02:02:42 10° WSW 02:12:36 66° NNW 02:22:45 10° NE visible
02 Jun - 04:09:38 10° WNW 04:19:06 42° N 04:28:36 10° ENE visible
02 Jun - 06:15:56 10° NW 06:25:53 55° NNE 06:35:40 10° E daylight
02 Jun - 08:21:08 10° WNW 08:31:09 68° SW 08:40:53 10° SE daylight
02 Jun - 10:28:48 10° W 10:34:35 17° WSW 10:40:18 10° SSW daylight
02 Jun - 23:33:43 10° SSW 23:42:47 45° SE 23:52:07 10° ENE visible
